Location: Gerlach
(40.6516°N, 119.3568°W)
Time: 05:14:57
(UTC-07:00)

Explorer 11/Cluster Stage 4 - Pass Details

Date: 07 February 2023
Orbit: 466 x 1241 km, 28.8° (Epoch: 02 April)

Event Time Altitude Azimuth Distance (km) Brightness Sun altitude
Exits shadow 06:10:53 - 251° (WSW) 3,359 9.3 -10.0°
Reaches altitude 10° 06:11:55 10° 247° (WSW) 3,071 9.1 -9.8°
Maximum altitude 06:18:37 32° 188° (S) 1,975 8.7 -8.6°
Drops below altitude 10° 06:25:35 10° 130° (SE) 3,188 10.9 -7.3°
Sets 06:28:47 0° 121° (ESE) 4,118 12.0 -6.7°
